| time (UTC) | temp F | wind direction | speed MPH | gust MPH | rain 1hr in | rain 24hr in | rain mn in | humidity % | barometer mb |
| 20260505052504 | 59 | 208 | 2.0 | 7.0 | 0.00 | 0.00 | 0.00 | 83 | 1011.0 |
| 20260505052004 | 59 | 184 | 1.0 | 10.0 | 0.00 | 0.00 | 0.00 | 83 | 1011.0 |
| 20260505051004 | 59 | 225 | 2.0 | 0.0 | 0.00 | 0.00 | 0.00 | 83 | 1011.0 |
| 20260505050504 | 59 | 225 | 2.0 | 0.0 | 0.00 | 0.00 | 0.00 | 83 | 1011.0 |
| 20260505041504 | 59 | 182 | 2.0 | 7.0 | 0.00 | 0.00 | 0.00 | 81 | 1011.3 |
| 20260505041005 | 59 | 219 | 3.0 | 8.0 | 0.00 | 0.00 | 0.00 | 81 | 1011.2 |
| 20260505040504 | 59 | 207 | 5.0 | 15.0 | 0.00 | 0.00 | 0.00 | 81 | 1011.2 |
| 20260505040005 | 59 | 166 | 2.0 | 9.0 | 0.00 | 0.00 | 0.00 | 80 | 1011.3 |
| 20260505035503 | 59 | 202 | 1.0 | 9.0 | 0.00 | 0.00 | 0.00 | 80 | 1011.3 |
| 20260505035004 | 59 | 197 | 5.0 | 12.0 | 0.00 | 0.00 | 0.00 | 80 | 1011.1 |
| 20260505034505 | 59 | 225 | 2.0 | 9.0 | 0.00 | 0.00 | 0.00 | 79 | 1011.2 |
| 20260505034004 | 59 | 191 | 2.0 | 9.0 | 0.00 | 0.00 | 0.00 | 78 | 1011.0 |
| 20260505033504 | 59 | 198 | 1.0 | 9.0 | 0.00 | 0.00 | 0.00 | 78 | 1011.1 |
| 20260505033004 | 60 | 221 | 1.0 | 5.0 | 0.00 | 0.00 | 0.00 | 77 | 1011.0 |
| 20260505032504 | 60 | 223 | 0.0 | 7.0 | 0.00 | 0.00 | 0.00 | 77 | 1011.1 |
| 20260505032004 | 60 | 186 | 2.0 | 7.0 | 0.00 | 0.00 | 0.00 | 77 | 1011.1 |
| 20260505031004 | 60 | 202 | 1.0 | 8.0 | 0.00 | 0.00 | 0.00 | 76 | 1011.3 |
| 20260505030504 | 60 | 204 | 1.0 | 8.0 | 0.00 | 0.00 | 0.00 | 76 | 1011.3 |
| 20260505030004 | 60 | 201 | 2.0 | 7.0 | 0.00 | 0.00 | 0.00 | 76 | 1011.2 |
| 20260505025504 | 60 | 202 | 1.0 | 7.0 | 0.00 | 0.00 | 0.00 | 75 | 1011.3 |
| 20260505024504 | 60 | 213 | 1.0 | 7.0 | 0.00 | 0.00 | 0.00 | 75 | 1011.3 |
| 20260505024004 | 60 | 202 | 0.0 | 5.0 | 0.00 | 0.00 | 0.00 | 75 | 1011.3 |
| 20260505023504 | 60 | 195 | 1.0 | 5.0 | 0.00 | 0.00 | 0.00 | 75 | 1011.3 |
| 20260505023004 | 60 | 202 | 1.0 | 5.0 | 0.00 | 0.00 | 0.00 | 74 | 1011.4 |
| 20260505022504 | 60 | 201 | 0.0 | 5.0 | 0.00 | 0.00 | 0.00 | 74 | 1011.3 |
| 20260505022004 | 60 | 203 | 1.0 | 8.0 | 0.00 | 0.00 | 0.00 | 74 | 1011.4 |
| 20260505021504 | 60 | 189 | 1.0 | 7.0 | 0.00 | 0.00 | 0.00 | 74 | 1011.4 |
| 20260505021004 | 60 | 180 | 0.0 | 3.0 | 0.00 | 0.00 | 0.00 | 74 | 1011.5 |
| 20260505015504 | 60 | 218 | 0.0 | 3.0 | 0.00 | 0.00 | 0.00 | 73 | 1011.4 |
| 20260505015005 | 60 | 204 | 2.0 | 6.0 | 0.00 | 0.00 | 0.00 | 73 | 1011.3 |
| 20260505014504 | 61 | 185 | 1.0 | 9.0 | 0.00 | 0.00 | 0.00 | 73 | 1011.3 |
| 20260505014004 | 60 | 212 | 2.0 | 7.0 | 0.00 | 0.00 | 0.00 | 72 | 1011.3 |
| 20260505013504 | 60 | 218 | 1.0 | 7.0 | 0.00 | 0.00 | 0.00 | 72 | 1011.3 |
| 20260505012004 | 61 | 211 | 0.0 | 0.0 | 0.00 | 0.00 | 0.00 | 69 | 1011.3 |
| 20260505011004 | 61 | 202 | 0.0 | 2.0 | 0.00 | 0.00 | 0.00 | 68 | 1011.1 |
| 20260505010504 | 62 | 202 | 0.0 | 0.0 | 0.00 | 0.00 | 0.00 | 68 | 1011.1 |
| 20260505010005 | 62 | 192 | 1.0 | 6.0 | 0.00 | 0.00 | 0.00 | 67 | 1010.9 |
| 20260505005504 | 62 | 182 | 1.0 | 6.0 | 0.00 | 0.00 | 0.00 | 66 | 1010.8 |
| 20260505004504 | 62 | 202 | 1.0 | 3.0 | 0.00 | 0.00 | 0.00 | 63 | 1010.9 |
| 20260505004004 | 62 | 202 | 0.0 | 7.0 | 0.00 | 0.00 | 0.00 | 62 | 1010.9 |
| 20260505003504 | 63 | 180 | 2.0 | 8.0 | 0.00 | 0.00 | 0.00 | 60 | 1011.0 |
| 20260505002004 | 64 | 180 | 1.0 | 8.0 | 0.00 | 0.00 | 0.00 | 57 | 1010.8 |
| 20260505001504 | 64 | 200 | 0.0 | 0.0 | 0.00 | 0.00 | 0.00 | 56 | 1010.7 |
| 20260505001004 | 65 | 202 | 0.0 | 3.0 | 0.00 | 0.00 | 0.00 | 55 | 1010.8 |
| 20260505000005 | 65 | 190 | 1.0 | 7.0 | 0.00 | 0.00 | 0.00 | 54 | 1010.7 |
| 20260504235506 | 66 | 188 | 0.0 | 3.0 | 0.00 | 0.00 | 0.00 | 53 | 1010.6 |
| 20260504235006 | 66 | 202 | 1.0 | 7.0 | 0.00 | 0.00 | 0.00 | 52 | 1010.6 |
| 20260504234005 | 67 | 180 | 0.0 | 2.0 | 0.00 | 0.00 | 0.00 | 51 | 1010.4 |
| 20260504232506 | 68 | 198 | 5.0 | 10.0 | 0.00 | 0.00 | 0.00 | 49 | 1010.4 |
| 20260504232006 | 68 | 221 | 3.0 | 10.0 | 0.00 | 0.00 | 0.00 | 49 | 1010.3 |
| 20260504231506 | 69 | 198 | 3.0 | 12.0 | 0.00 | 0.00 | 0.00 | 48 | 1010.3 |
| 20260504231005 | 69 | 202 | 3.0 | 10.0 | 0.00 | 0.00 | 0.00 | 48 | 1010.3 |
| 20260504230506 | 69 | 203 | 5.0 | 13.0 | 0.00 | 0.00 | 0.00 | 48 | 1010.2 |
| 20260504230005 | 70 | 202 | 1.0 | 9.0 | 0.00 | 0.00 | 0.00 | 47 | 1010.2 |
| 20260504225005 | 70 | 184 | 3.0 | 12.0 | 0.00 | 0.00 | 0.00 | 45 | 1010.2 |
| 20260504224505 | 71 | 225 | 4.0 | 12.0 | 0.00 | 0.00 | 0.00 | 45 | 1010.2 |
| 20260504224006 | 71 | 213 | 4.0 | 12.0 | 0.00 | 0.00 | 0.00 | 44 | 1010.1 |
| 20260504223505 | 71 | 207 | 0.0 | 6.0 | 0.00 | 0.00 | 0.00 | 44 | 1010.2 |
| 20260504222505 | 72 | 228 | 4.0 | 10.0 | 0.00 | 0.00 | 0.00 | 42 | 1010.3 |
| 20260504222005 | 72 | 195 | 2.0 | 13.0 | 0.00 | 0.00 | 0.00 | 42 | 1010.2 |
| 20260504221505 | 72 | 188 | 5.0 | 13.0 | 0.00 | 0.00 | 0.00 | 41 | 1010.2 |
| 20260504221005 | 72 | 208 | 3.0 | 13.0 | 0.00 | 0.00 | 0.00 | 41 | 1010.2 |
| 20260504220505 | 72 | 221 | 5.0 | 12.0 | 0.00 | 0.00 | 0.00 | 41 | 1010.1 |
| 20260504220005 | 72 | 230 | 3.0 | 9.0 | 0.00 | 0.00 | 0.00 | 41 | 1010.2 |
| 20260504215506 | 72 | 221 | 3.0 | 13.0 | 0.00 | 0.00 | 0.00 | 40 | 1010.2 |
| 20260504215006 | 72 | 225 | 2.0 | 10.0 | 0.00 | 0.00 | 0.00 | 40 | 1010.4 |
| 20260504214505 | 73 | 224 | 1.0 | 9.0 | 0.00 | 0.00 | 0.00 | 40 | 1010.3 |
| 20260504214006 | 73 | 224 | 6.0 | 17.0 | 0.00 | 0.00 | 0.00 | 39 | 1010.3 |
| 20260504213506 | 73 | 221 | 2.0 | 14.0 | 0.00 | 0.00 | 0.00 | 40 | 1010.3 |
| 20260504213005 | 73 | 241 | 2.0 | 17.0 | 0.00 | 0.00 | 0.00 | 39 | 1010.3 |
| 20260504212506 | 73 | 226 | 7.0 | 13.0 | 0.00 | 0.00 | 0.00 | 39 | 1010.3 |
| 20260504212006 | 73 | 209 | 5.0 | 13.0 | 0.00 | 0.00 | 0.00 | 39 | 1010.4 |
| 20260504211504 | 73 | 203 | 2.0 | 15.0 | 0.00 | 0.00 | 0.00 | 39 | 1010.4 |
| 20260504210506 | 73 | 233 | 8.0 | 18.0 | 0.00 | 0.00 | 0.00 | 39 | 1010.3 |
| 20260504210005 | 74 | 231 | 9.0 | 16.0 | 0.00 | 0.00 | 0.00 | 39 | 1010.4 |
| 20260504205005 | 74 | 208 | 2.0 | 12.0 | 0.00 | 0.00 | 0.00 | 39 | 1010.3 |
| 20260504204505 | 74 | 222 | 2.0 | 16.0 | 0.00 | 0.00 | 0.00 | 39 | 1010.4 |
| 20260504204005 | 75 | 196 | 10.0 | 15.0 | 0.00 | 0.00 | 0.00 | 38 | 1010.5 |
| 20260504202505 | 75 | 205 | 1.0 | 14.0 | 0.00 | 0.00 | 0.00 | 38 | 1010.5 |
| 20260504202005 | 75 | 215 | 2.0 | 13.0 | 0.00 | 0.00 | 0.00 | 38 | 1010.5 |
| 20260504201505 | 75 | 223 | 5.0 | 17.0 | 0.00 | 0.00 | 0.00 | 38 | 1010.7 |
| 20260504200005 | 76 | 213 | 6.0 | 13.0 | 0.00 | 0.00 | 0.00 | 37 | 1010.8 |
| 20260504195505 | 76 | 204 | 2.0 | 13.0 | 0.00 | 0.00 | 0.00 | 37 | 1010.8 |
| 20260504195005 | 76 | 217 | 9.0 | 15.0 | 0.00 | 0.00 | 0.00 | 36 | 1010.9 |
| 20260504194505 | 77 | 211 | 1.0 | 14.0 | 0.00 | 0.00 | 0.00 | 36 | 1010.9 |
| 20260504194005 | 77 | 232 | 1.0 | 10.0 | 0.00 | 0.00 | 0.00 | 37 | 1011.0 |
| 20260504193005 | 78 | 202 | 2.0 | 12.0 | 0.00 | 0.00 | 0.00 | 35 | 1011.1 |
| 20260504192505 | 78 | 224 | 5.0 | 12.0 | 0.00 | 0.00 | 0.00 | 35 | 1011.1 |
| 20260504192005 | 79 | 199 | 5.0 | 18.0 | 0.00 | 0.00 | 0.00 | 35 | 1011.1 |
| 20260504191505 | 80 | 232 | 1.0 | 10.0 | 0.00 | 0.00 | 0.00 | 34 | 1011.2 |
| 20260504191005 | 81 | 204 | 5.0 | 16.0 | 0.00 | 0.00 | 0.00 | 34 | 1011.2 |
| 20260504190506 | 81 | 207 | 0.0 | 3.0 | 0.00 | 0.00 | 0.00 | 34 | 1011.3 |
| 20260504190005 | 82 | 210 | 2.0 | 10.0 | 0.00 | 0.00 | 0.00 | 34 | 1011.5 |
| 20260504185504 | 82 | 193 | 3.0 | 12.0 | 0.00 | 0.00 | 0.00 | 33 | 1011.5 |
| 20260504185004 | 83 | 196 | 6.0 | 12.0 | 0.00 | 0.00 | 0.00 | 32 | 1011.4 |
| 20260504184505 | 84 | 197 | 3.0 | 10.0 | 0.00 | 0.00 | 0.00 | 32 | 1011.4 |
| 20260504184005 | 85 | 200 | 3.0 | 16.0 | 0.00 | 0.00 | 0.00 | 31 | 1011.6 |
| 20260504183505 | 86 | 224 | 3.0 | 18.0 | 0.00 | 0.00 | 0.00 | 32 | 1011.6 |
| 20260504183005 | 86 | 207 | 5.0 | 15.0 | 0.00 | 0.00 | 0.00 | 32 | 1011.6 |
| 20260504182505 | 85 | 224 | 2.0 | 12.0 | 0.00 | 0.00 | 0.00 | 33 | 1011.6 |
| 20260504182005 | 85 | 202 | 1.0 | 9.0 | 0.00 | 0.00 | 0.00 | 32 | 1011.8 |
| 20260504181505 | 85 | 214 | 3.0 | 10.0 | 0.00 | 0.00 | 0.00 | 32 | 1011.8 |
| 20260504181005 | 86 | 184 | 2.0 | 12.0 | 0.00 | 0.00 | 0.00 | 31 | 1011.9 |
| 20260504180505 | 86 | 219 | 3.0 | 15.0 | 0.00 | 0.00 | 0.00 | 33 | 1012.1 |
| 20260504180005 | 86 | 224 | 3.0 | 13.0 | 0.00 | 0.00 | 0.00 | 32 | 1012.2 |
| 20260504175505 | 86 | 216 | 5.0 | 14.0 | 0.00 | 0.00 | 0.00 | 33 | 1012.2 |
| 20260504174505 | 85 | 221 | 2.0 | 7.0 | 0.00 | 0.00 | 0.00 | 34 | 1012.2 |
| 20260504174005 | 85 | 193 | 5.0 | 12.0 | 0.00 | 0.00 | 0.00 | 32 | 1012.2 |
| 20260504173505 | 86 | 200 | 11.0 | 20.0 | 0.00 | 0.00 | 0.00 | 31 | 1012.2 |
| 20260504173006 | 87 | 221 | 8.0 | 12.0 | 0.00 | 0.00 | 0.00 | 31 | 1012.4 |
| 20260504172505 | 89 | 208 | 5.0 | 10.0 | 0.00 | 0.00 | 0.00 | 32 | 1012.4 |
| 20260504172005 | 89 | 225 | 1.0 | 8.0 | 0.00 | 0.00 | 0.00 | 33 | 1012.6 |
| 20260504171505 | 89 | 319 | 0.0 | 8.0 | 0.00 | 0.00 | 0.00 | 33 | 1012.7 |
| 20260504171005 | 89 | 191 | 6.0 | 18.0 | 0.00 | 0.00 | 0.00 | 32 | 1012.9 |
| 20260504170506 | 88 | 225 | 0.0 | 8.0 | 0.00 | 0.00 | 0.00 | 35 | 1012.7 |
| 20260504151004 | 76 | 219 | 2.0 | 12.0 | 0.00 | 0.00 | 0.00 | 46 | 1013.9 |
| 20260504150504 | 76 | 225 | 1.0 | 9.0 | 0.00 | 0.00 | 0.00 | 46 | 1013.8 |
| 20260504140504 | 79 | 200 | 2.0 | 9.0 | 0.00 | 0.00 | 0.00 | 48 | 1014.1 |
| 20260504130505 | 67 | 227 | 1.0 | 10.0 | 0.00 | 0.00 | 0.00 | 55 | 1014.6 |
| 20260504110505 | 51 | 180 | 0.0 | 2.0 | 0.00 | 0.00 | 0.00 | 86 | 1015.4 |
| 20260504100505 | 47 | 225 | 0.0 | 0.0 | 0.00 | 0.00 | 0.00 | 86 | 1015.5 |
| 20260504082005 | 47 | 225 | 2.0 | 12.0 | 0.00 | 0.00 | 0.00 | 78 | 1015.5 |
| 20260504081504 | 47 | 202 | 2.0 | 7.0 | 0.00 | 0.00 | 0.00 | 78 | 1015.5 |
| 20260504081004 | 47 | 202 | 0.0 | 6.0 | 0.00 | 0.00 | 0.00 | 77 | 1015.5 |
| 20260504080505 | 46 | 190 | 1.0 | 3.0 | 0.00 | 0.00 | 0.00 | 77 | 1015.5 |